Location: Little Ridge
(33.0629°N, 96.4547°W)
Time: 07:15:00
(UTC+00:00)

H-2A R/B - Pass Details

Date: 08 December 2021
Orbit: 577 x 654 km, 98.5° (Epoch: 17 January)

Event Time Altitude Azimuth Distance (km) Brightness Sun altitude
Rises 12:33:50 0° 158° (SSE) 2,838 6.2 -9.0°
Reaches altitude 10° 12:35:59 10° 155° (SSE) 1,951 5.4 -8.6°
Maximum altitude 12:40:10 62° 75° (ENE) 699 2.6 -7.8°
Drops below altitude 10° 12:44:29 10° 355° (N) 2,011 4.4 -7.0°
Sets 12:46:43 0° 352° (N) 2,935 5.2 -6.5°
